Lincoln Airport Lincoln US
ICAO: KLNK
IATA: LNK
Category: Medium
Scheduled Services: Yes

Elevation: 1219 ft
TransAlt. 18000 ft.

Airport Communications:
APP/DEP:124
ATIS:118.05
CLNC DEL:120.7
CTAF:118.5
GND:121.9
ARNG OPS:123.075
ANG OPS:25.96
COLUMBUS RDO:122.65
TWR:118.5
UNICOM:122.95

KLNK Zoom In..

If you have problems with the map follow the link
https://www.worldairports.se/pages/airport.php?
ICAO=KLNK

Runways:

(A) RW 14 length 8649 ft width 150 ft
---- / hdg 139

(B) RW 17 length 5800 ft width 100 ft
---- / hdg 174

(C) RW 18 length 12901 ft width 200 ft
ILS 111.10 / hdg 174

(D) RW 32 length 8649 ft width 150 ft
---- / hdg 319

(E) RW 35 length 5800 ft width 100 ft
---- / hdg 354

(F) RW 36 length 12901 ft width 200 ft
ILS 109.90 / hdg 354

Location; KLNK
Day. 19 / Time. 19.54 Zulu
* Altimeter: 30.60
* Temperature: -05° c. -23°f.
* Wind from: 020° Speed 14 kn.
Dewpoint: -09° c.
Visibility: 10 Statute Miles.
Clouds: Overcast 1000 ft.

KLNK 191954Z 02014KT 10SM OVC010 M05/M09 A3060 RMK AO2 SLP379 T10501089


Wind From 020°
Speed 14 kn.

 
 
jpsmedia worldairports.se 2020   terms of use